Regional Weather Roundup
Issued by NWS Bismarck, ND

Home | Current Version | Previous Version | Text Only | Print | Product List | Glossary On
Versions: 1 2 3 4 5 6 7 8 9 10 11 12 13 14 15 16 17 18 19 20 21 22 23 24 25 26 27 28 29 30 31 32 33 34 35 36 37 38 39 40 41 42 43 44 45 46 47 48 49 50
000
ASUS43 KBIS 030910
RWRBIS

NWR BROADCAST TEXT
NATIONAL WEATHER SERVICE BISMARCK ND
400 AM CDT TUE AUG 03 2021

NOTE: "FAIR" INDICATES FEW OR NO CLOUDS BELOW 12,000 FEET WITH NO
SIGNIFICANT WEATHER AND/OR OBSTRUCTIONS TO VISIBILITY.


CITY           SKY/WX    TMP DP  RH WIND       PRES   REMARKS
WILLISTON      PTCLDY    68  49  50 E5        30.06F
MINOT          PTCLDY    63  52  67 CALM      30.04S
MINOT AFB      PTCLDY    58  43  57 CALM      30.02F
BISMARCK       PTCLDY    64  55  72 NE6       30.07R
DICKINSON      PTCLDY    60  51  72 S9        30.06S
GARRISON         N/A     62  52  69 E3        30.05F
HETTINGER ARPT PTCLDY    64  55  72 SE3       30.08S
JAMESTOWN      PTCLDY    60  53  77 CALM      30.05F
CARRINGTON     FAIR      68  54  60 SW6       30.08S
HAZEN          CLOUDY    57  52  82 CALM      30.07S
MANDAN         PTCLDY    66  57  72 S5        30.07F
OAKES          CLOUDY    59  59 100 S7        30.08R
RUGBY            N/A     59  55  88 CALM      30.04F
STANLEY        CLOUDY    59  50  72 CALM      30.07F
TIOGA            N/A     57  48  72 NE3       30.08F
WATFORD CITY   FAIR      59  48  67 CALM      30.06S
$$

CITY           SKY/WX    TMP DP  RH WIND       PRES   REMARKS
GRAND FORKS    PTCLDY    60  52  74 W5        30.01S
GRAND FORKS AF PTCLDY    60  58  92 W6        30.01S
DEVILS LAKE    PTCLDY    63  57  81 CALM      30.06S
FARGO          PTCLDY    63  54  72 S6        30.04S
CANDO            N/A     57  57 100 CALM      30.07S FOG
CAVALIER       CLOUDY    64  55  72 W7        29.99S HAZE
GRAFTON        FAIR      61  55  82 W3          N/A  HAZE
GWINNER        MOCLDY    61  61 100 SW8       30.07S
LANGDON        FAIR      57  57 100 SW3       30.05S
ROLLA          FAIR      57  57 100 SW7       30.07S
WALHALLA       FAIR      68  68 100 W3        30.00S
$$

CITY           SKY/WX    TMP DP  RH WIND       PRES   REMARKS
ABERDEEN       CLEAR     55  52  89 S6        30.08S
MOBRIDGE       CLEAR     65  56  72 S8        30.04F
BUFFALO          N/A     66  53  63 CALM      30.04F
RAPID CITY     CLEAR     57  47  69 CALM      30.06F
GLASGOW        MOCLDY    75  45  34 E8        30.03F
SIDNEY         PTCLDY    66  48  52 NW6       30.04F
WOLF POINT     CLOUDY    71  48  43 NE7       30.03S
GLENDIVE       PTCLDY    69  41  36 NE6       30.06S
MILES CITY     PTCLDY    70  39  32 N12       30.01S
BAKER          PTCLDY    62  41  46 E6        30.07F
$$

CITY           SKY/WX    TMP DP  RH WIND       PRES   REMARKS
BILLINGS       MOCLDY    73  54  51 W10       30.11F
GREAT FALLS    CLOUDY    71  58  63 SW10      30.11F
REGINA         MOCLDY    66  50  55 S5        30.02F
ESTEVAN        CLEAR     59  52  77 S8        30.05S
$$




USA.gov is the U.S. government's official web portal to all federal, state and local government web resources and services.